Regional Weather Roundup
Issued by NWS

Home | Current Version | Previous Version | Graphics & Text | Print | Product List | Glossary On
Versions: 1 2 3 4 5 6 7 8 9 10 11 12 13 14 15 16 17 18 19 20 21 22 23 24 25 26 27 28 29 30 31 32 33 34 35 36 37 38 39 40 41 42 43 44 45 46 47 48 49 50
000
ASUS43 KDMX 222107
RWRIA

WEATHER ROUNDUP FOR IOWA
NATIONAL WEATHER SERVICE DES MOINES IA
300 PM CST SAT NOV 22 2014

NOTE: "FAIR" INDICATES FEW OR NO CLOUDS BELOW 12,000 FEET WITH NO
SIGNIFICANT WEATHER AND/OR OBSTRUCTIONS TO VISIBILITY.

* - THESE STATIONS ARE NOT NWS STATIONS...THUS NOT UNDER NWS
QUALITY CONTROL.  THEY ALSO DO NOT REPORT WEATHER SUCH
AS PRECIPITATION OR FOG.

IAZ001>003-012>014-020>022-031>034-043>046-222200-
   NORTHWEST IOWA

CITY           SKY/WX    TMP DP  RH WIND       PRES   REMARKS
CARROLL *      SUNNY     46  43  87 S15G22    29.67F
CHEROKEE *     MOSUNNY   43  39  87 S13       29.65F
DENISON *      SUNNY     46  43  87 S12G17    29.66F
LE MARS *      SUNNY     43  39  87 S18       29.61F
ORANGE CITY *  SUNNY     43  37  81 S16G22    29.60F
SHELDON *      MOSUNNY   39  39 100 S21G31    29.59F FOG     WCI  29
SIOUX CITY     MOSUNNY   47  38  71 S15       29.64F
SPENCER        CLOUDY    41  38  89 S15       29.64F FOG
STORM LAKE *   PTSUNNY   41  39  93 S12G18    29.66F FOG
$$

IAZ055>058-069>071-079>083-090>094-222200-
   SOUTHWEST IOWA

CITY           SKY/WX    TMP DP  RH WIND       PRES   REMARKS
ATLANTIC *     SUNNY     55  46  71 S16G22    29.69F
AUDUBON *      SUNNY     52  43  71 S9        29.70F
CLARINDA *     CLOUDY    54  52  94 S8        29.75F FOG
COUNCIL BLFS * SUNNY     57  46  67 S14       29.67F
CRESTON *      FOG       50  50 100 S10       29.74F VSB 0
HARLAN  *      SUNNY     52  45  76 S12       29.72F
LAMONI         FOG       51  51 100 S7        29.77F VSB 1/4
RED OAK *      CLOUDY    54  50  87 S12G21    29.72F
SHENANDOAH *   CLOUDY    55  52  88 S13       29.73F FOG
$$

IAZ047>049-059>061-072>074-084-222200-
   CENTRAL IOWA

CITY           SKY/WX    TMP DP  RH WIND       PRES   REMARKS
AMES           SUNNY     53  41  63 S13       29.72F
ANKENY *       SUNNY     55  46  71 SW13G21   29.73F
CHARITON *     FOG       50  50 100 SW6       29.77F VSB 1/4
DES MOINES     CLOUDY    55  47  74 SW16      29.74F
GRINNELL*      CLOUDY    52  46  82 SW16G25   29.76F
KNOXVILLE *    CLOUDY    52  50  93 S8        29.75F FOG
MARSHALLTOWN   SUNNY     53  43  68 SW15G22   29.72F
PELLA *        CLOUDY    52  50  93 SW10      29.78F FOG
PERRY *          N/A     54  43  66 SW14      29.71F
$$

IAZ004>006-015-016-023>025-035-036-222200-
   NORTH CENTRAL IOWA

CITY           SKY/WX    TMP DP  RH WIND       PRES   REMARKS
ALGONA *       PTSUNNY   41  39  93 S15       29.68F FOG
CLARION *      PTSUNNY   45  45 100 S14       29.69F
ESTHERVILLE    CLOUDY    39  37  92 S18G26    29.64F FOG     WCI  30
FORT DODGE *   PTSUNNY   45  39  81 S10       29.69F
MASON CITY     CLOUDY    42  40  92 S20G28    29.70F FOG
FOREST CITY *  CLOUDY    41  41 100 S17G25    29.68F FOG
IOWA FALLS *     N/A     52  43  71 S13       29.71F
$$

IAZ007>011-017>019-026>030-037>042-050>054-066-222200-
   NORTHEAST IOWA

CITY           SKY/WX    TMP DP  RH WIND       PRES   REMARKS
CEDAR RAPIDS   CLOUDY    50  49  96 S8        29.77F FOG
CHARLES CITY * CLOUDY    43  43 100 S7        29.71F FOG
CLINTON *      CLOUDY    52  46  82 SW9       29.85R
DECORAH *      FOG       41  41 100 SW8       29.72F VSB 1/4
DUBUQUE        CLOUDY    48 N/A N/A SW14      29.78F
MONTICELLO *   CLOUDY    50  48  93 S9        29.78F
OELWEIN *      SUNNY     50  45  81 S12       29.73F
WATERLOO       SUNNY     53  44  71 S9        29.72F
$$

IAZ064-065-067-068-078-222200-
   EAST CENTRAL IOWA

CITY           SKY/WX    TMP DP  RH WIND       PRES   REMARKS
DAVENPORT      CLOUDY    54  47  77 S14       29.82S
IOWA CITY      CLOUDY    53  51  93 S6        29.81F
MT. PLEASANT * CLOUDY    54  50  87 S13       29.82F
MUSCATINE *    CLOUDY    55  50  82 S12       29.82R
QUAD CITIES    CLOUDY    56  48  74 S12       29.82F
$$

IAZ062-063-075>077-085>089-095>099-222200-
   SOUTHEAST IOWA

CITY           SKY/WX    TMP DP  RH WIND       PRES   REMARKS
BURLINGTON     CLOUDY    56  50  80 SW12      29.84F
FAIRFIELD *    CLOUDY    55  50  82 S12       29.81S
FORT MADISON *   N/A     57  52  82 SW8       29.86R
KEOKUK *       CLOUDY    57  50  77 SW9G16    29.84F
OSKALOOSA *    CLOUDY    54  52  94 S8        29.78F FOG
CENTERVILLE *  CLOUDY    55  55 100 S13       29.81S
OTTUMWA        CLOUDY    57  52  83 S9        29.78F
WASHINGTON *   CLOUDY    55  55 100 S12       29.80S
$$

ABBREVIATIONS USED IN REMARKS
   TC - TEMPERATURES IN CELSIUS
  WCI - WIND CHILL INDEX
   HX - HEAT INDEX
  VSB - VISIBILITY
$$



USA.gov is the U.S. government's official web portal to all federal, state and local government web resources and services.